Miscellaneous Local Product
Issued by NWS Hastings, NE

Home | Current Version | Previous Version | Text Only | Print | Product List | Glossary On
Versions: 1 2 3 4 5 6 7 8 9 10 11 12 13 14 15 16 17 18 19 20 21 22 23 24 25 26 27 28 29 30 31 32 33 34 35 36 37 38 39 40 41 42 43 44 45 46 47 48 49 50
000
AXUS43 KGID 172002
MISGRI

GID CWA HOURLY WEATHER ROUNDUP
NATIONAL WEATHER SERVICE HASTINGS NE
200 PM CST WED DEC 17 2014

NOTE: "FAIR" INDICATES FEW OR NO CLOUDS BELOW 12,000 FEET WITH NO
SIGNIFICANT WEATHER AND/OR OBSTRUCTIONS TO VISIBILITY.

...SOUTH CENTRAL NEBRASKA...

CITY           SKY/WX    TMP DP  RH WIND       PRES   REMARKS
GRAND ISLAND   CLOUDY    24  19  81 SE6       30.20F WCI  17
HASTINGS       CLOUDY    24  18  77 SE9       30.18F WCI  14
KEARNEY        CLOUDY    25  19  80 E6        30.17F WCI  18
ORD            CLOUDY    21  18  88 S5        30.18F WCI  15
YORK           CLOUDY    25  18  74 E7        30.22F WCI  17
AURORA         CLOUDY    25  21  83 SE6       30.20F WCI  18
LEXINGTON      CLOUDY    22  21  95 SE6       30.16F FOG     WCI  15
HOLDREGE       CLOUDY    23  22  93 SE7       30.16S WCI  15
HEBRON         MOSUNNY   77  64  65 NE12      30.18F

...NEBRASKA PANHANDLE...

CITY           SKY/WX    TMP DP  RH WIND       PRES   REMARKS
CHADRON        MOSUNNY   28  19  69 CALM      29.97F
ALLIANCE       CLOUDY    24  21  88 S14       29.96F WCI  12
SCOTTSBLUFF    MOSUNNY   22  19  89 E10       29.95F WCI  11
SIDNEY         FOG       22  19  89 S10       29.97F VSB 3/4 WCI  11

...WESTERN AND NORTH CENTRAL NEBRASKA...

CITY           SKY/WX    TMP DP  RH WIND       PRES   REMARKS
VALENTINE      CLOUDY    22  19  89 S13       30.10F WCI  10
AINSWORTH      CLOUDY    20  19  96 S7        30.11F FOG     WCI  11
ONEILL         CLOUDY    19  19  97 S5        30.20F WCI  12
BROKEN BOW     CLOUDY    22  21  96 S9        30.14F FOG     WCI  12
IMPERIAL       CLOUDY    23  20  88 S7        30.05F WCI  15
NORTH PLATTE   CLOUDY    22  20  92 SE7       30.10F WCI  13
MCCOOK         CLOUDY    23  21  92 E9        30.11F FOG     WCI  13

...EASTERN NEBRASKA...

CITY           SKY/WX    TMP DP  RH WIND       PRES   REMARKS
NORFOLK        SUNNY     25  14  63 S6        30.23F WCI  18
SO SIOUX CITY  SUNNY     25  15  66 SW6       30.29F WCI  18
TEKAMAH        MOSUNNY   25  14  63 CALM      30.29F
COLUMBUS       CLOUDY    25  12  58 E5        30.26F WCI  19
ALBION         CLOUDY    22  17  82 CALM      30.22F
OMAHA EPPLEY   PTSUNNY   27  15  61 CALM      30.30F
OFFUTT AFB     PTSUNNY   26  15  63 CALM      30.28F
MILLARD        MOSUNNY   28  16  62 CALM      30.29F
LINCOLN        CLOUDY    26  15  63 NE6       30.27F WCI  19
NEBRASKA CITY  CLOUDY    25  14  63 NE7       30.28F WCI  18
BEATRICE       CLOUDY    27  18  68 E6        30.24F WCI  21
FALLS CITY     CLOUDY    28  18  66 N3        30.27F

...NORTHERN KANSAS...

CITY           SKY/WX    TMP DP  RH WIND       PRES   REMARKS
GOODLAND       FOG       24  23  96 E8        30.01F VSB 1/4 WCI  15
HILL CITY      CLOUDY    28  22  78 E10       30.12F WCI  19
NORTON         CLOUDY    25  21  86 E7        30.12F WCI  17
PHILLIPSBURG   CLOUDY    30  25  80 E9        30.16F WCI  22
SMITH CENTER   PTSUNNY   27  21  80 E13       30.17F WCI  16
BELOIT         CLOUDY    28  21  74 E9        30.19F WCI  20
HAYS           CLOUDY    32  19  59 E13       30.11F WCI  22
RUSSELL        CLOUDY    31  24  75 E13       30.13F WCI  21
CONCORDIA      CLOUDY    27  20  75 E10       30.20F WCI  17
SALINA         CLOUDY    30  23  75 E10       30.20F WCI  21
TOPEKA         CLOUDY    29  20  69 NE3       30.27F



USA.gov is the U.S. government's official web portal to all federal, state and local government web resources and services.